SCP
0 0 0 0 0 0 0 0 0 0 0 0 0 0 0 0 0 0 0 0 0 0 0 0 0 0 0 0 0 0 0 0 0 0 0 0 1 1 1 2 2 2 1 1 1 1 1 1 1
1 1 0 0 0 0 0 0 0 0 0 0 0 0 0 0 0 0 0 0 0 0 0 0 0 0 0 0 0 0 0 0 0 0 0 0 1 1 1 2 3 2 2 1 1 1 1 1 1
1 0 0 0 0 0 0 0 0 0 0 0 0 0 0 0 0 0 1 1 1 0 0 0 0 0 0 0 0 0 0 0 0 0 0 1 1 2 2 2 3 3 2 2 2 2 1 1 1
0 0 0 0 0 0 0 0 0 0 0 0 0 0 0 0 0 0 1 1 1 0 0 0 0 0 0 0 0 0 0 0 0 0 0 1 1 2 3 3 4 4 3 2 2 2 1 1 1
0 0 0 0 0 0 0 0 0 0 0 0 0 0 0 0 0 0 1 1 1 1 0 0 0 0 0 0 0 0 0 0 0 0 0 1 1 2 3 3 3 3 3 3 2 2 2 1 1
0 0 0 0 0 0 0 0 0 0 0 0 0 0 0 0 0 1 1 1 1 1 0 0 0 0 0 0 0 0 0 0 0 0 0 1 1 1 2 2 2 3 3 3 2 2 2 1 1
0 0 0 0 0 0 0 0 0 0 0 0 0 0 0 0 0 0 1 1 1 1 0 0 0 0 0 0 0 0 0 0 0 0 0 1 1 1 1 1 1 2 2 2 2 2 1 1 1
0 0 0 0 0 0 0 0 0 0 0 0 0 0 0 0 0 0 1 1 1 1 0 0 0 0 0 0 0 0 0 0 0 0 1 1 1 1 1 1 1 1 1 1 1 1 1 1 1
0 0 0 0 0 0 0 0 0 0 0 0 0 0 0 0 0 1 1 1 1 1 0 0 0 0 0 0 0 0 0 0 0 1 1 0 0 0 1 1 1 1 1 1 1 1 1 1 1
0 0 0 0 0 0 0 0 0 0 0 0 0 0 0 0 0 1 1 1 1 1 0 0 0 0 0 0 0 0 0 0 0 0 0 0 0 0 0 1 1 1 1 1 1 1 1 1 1
0 0 0 0 0 0 0 0 0 0 0 0 0 0 0 0 0 0 1 1 1 0 0 0 0 0 0 0 0 0 0 0 0 0 0 0 0 0 0 0 0 0 1 1 1 1 1 1 1
0 0 0 0 0 0 0 0 0 0 0 0 0 0 0 0 0 0 0 0 0 0 0 0 0 0 0 0 0 0 0 0 0 0 0 0 0 0 0 0 0 0 0 0 0 1 1 1 1
0 0 0 0 0 0 0 0 0 0 0 1 1 1 1 0 0 0 0 0 0 0 0 0 1 1 0 0 0 0 0 0 0 0 0 0 0 0 0 0 0 0 0 0 0 0 0 1 1
0 0 0 0 0 0 0 0 0 0 1 1 1 1 1 0 0 0 0 1 1 1 1 1 1 1 1 0 0 0 0 0 0 0 0 0 0 0 0 0 0 0 0 0 0 0 0 0 1
0 0 0 0 0 0 0 0 0 0 1 1 1 1 1 0 0 0 0 1 1 1 1 1 1 1 0 0 0 0 0 0 0 0 0 0 0 0 0 0 0 0 0 0 0 0 0 0 0
0 0 0 0 0 0 0 0 0 0 1 1 1 1 1 1 1 0 0 1 1 1 1 1 0 0 0 0 0 0 0 0 0 0 0 0 1 1 0 0 0 0 0 0 0 0 0 0 0
0 0 0 0 0 0 0 0 0 0 0 1 1 1 1 1 1 1 1 1 1 1 1 0 0 0 0 0 0 0 0 0 0 0 0 0 1 1 1 1 0 0 0 0 0 0 0 0 0
0 0 0 0 0 0 0 0 0 0 0 0 1 1 1 1 1 1 1 1 1 1 1 0 0 0 0 0 0 0 0 0 0 0 0 0 0 0 1 1 0 0 0 0 0 0 0 0 0
0 0 0 0 0 0 0 0 0 0 0 0 0 1 1 1 1 1 2 2 1 1 1 0 0 0 0 0 0 0 0 0 0 0 0 0 0 0 0 1 1 0 0 0 0 0 0 0 0
0 0 0 0 0 0 0 0 0 0 0 0 0 0 0 1 1 2 2 2 2 1 1 1 1 0 0 0 0 0 0 0 0 0 0 0 0 0 0 1 1 1 0 0 0 0 0 0 0
0 0 0 0 0 0 0 0 0 0 0 0 0 0 0 1 1 2 2 2 2 1 1 1 1 1 0 0 0 0 0 0 0 0 0 0 0 0 0 1 1 1 1 1 0 0 0 0 0
0 0 0 0 0 0 0 0 0 0 0 0 0 0 0 1 1 2 2 1 1 1 1 1 1 1 1 0 0 0 0 0 0 0 0 0 0 0 0 1 1 0 0 0 0 0 0 0 0
0 0 0 0 0 0 0 0 0 0 0 0 0 0 0 1 1 1 1 1 1 1 1 2 1 1 1 1 0 0 0 0 0 0 0 0 0 0 0 0 0 0 0 0 0 0 0 0 0
1 1 1 0 0 0 0 0 0 0 0 0 0 0 0 1 1 1 1 1 1 1 1 2 1 1 1 1 0 0 0 0 0 0 0 0 0 0 0 0 0 0 0 0 0 0 0 0 0
1 1 0 0 0 0 0 0 0 0 0 0 0 0 0 1 1 1 1 1 1 1 1 1 2 1 1 1 0 0 0 0 0 0 0 0 0 0 0 0 0 0 0 0 0 0 0 0 0
1 0 0 0 0 0 0 0 0 0 0 0 0 0 0 1 1 1 1 1 1 1 1 1 2 2 1 1 1 0 0 0 0 0 0 0 0 0 0 0 0 0 0 0 0 0 0 0 0
0 0 0 0 0 0 0 0 0 0 0 0 0 0 0 0 1 1 1 1 1 1 1 1 1 2 1 1 1 0 0 0 0 0 0 0 0 0 0 0 0 0 0 0 0 0 0 0 0
0 1 1 1 0 0 0 0 0 0 0 0 0 0 0 0 0 1 1 1 1 1 1 1 1 1 1 1 1 1 0 0 0 0 0 0 0 0 0 0 0 0 0 0 0 0 0 0 0
0 1 1 1 0 0 0 0 0 0 0 0 0 0 0 0 0 0 1 1 1 1 1 1 1 1 1 1 1 1 1 1 1 0 0 0 0 0 0 0 0 0 0 0 0 0 0 0 0
0 0 1 1 0 0 0 0 0 0 0 0 0 0 0 0 0 0 0 0 0 0 1 1 1 1 1 0 1 1 1 1 1 1 0 0 0 0 0 0 0 0 0 0 0 0 0 0 0
Wind_Speed
3 2 2 3 6 6 3 1 2 3 4 4 8 9 8 6 4 5 2 6 7 4 2 4 7 8 8 8 8 9 9 9 10 10 10 10 10 10 9 9 10 11 11 11 11 11 11 10 10
1 1 3 5 5 4 2 0 3 3 5 6 7 8 8 6 4 5 3 6 8 6 3 4 7 8 8 8 8 9 9 9 9 10 10 10 10 10 10 10 11 12 12 11 11 11 11 11 11
1 0 3 4 3 3 3 2 4 3 4 4 5 5 5 4 4 3 4 8 7 5 4 4 8 8 8 8 8 9 9 9 9 9 10 10 10 11 12 12 12 12 12 12 12 12 11 11 11
2 4 5 5 3 1 4 4 4 4 4 5 6 6 4 3 3 5 7 9 8 5 3 5 8 8 8 8 8 9 9 9 9 9 10 10 10 11 12 13 13 12 12 11 11 11 11 12 12
4 5 5 4 2 2 2 4 5 6 4 5 7 6 3 2 5 7 7 8 7 5 3 5 8 8 8 8 8 8 9 9 10 10 10 10 11 11 12 13 13 12 11 11 11 11 11 12 12
4 4 5 2 2 1 1 4 6 7 6 6 7 6 2 1 5 5 7 6 6 6 4 4 7 7 7 7 8 8 9 9 9 10 10 10 11 11 11 12 12 11 11 11 11 11 12 12 12
5 4 3 3 2 1 2 3 6 6 6 5 6 6 3 1 4 6 6 6 5 5 4 3 3 4 6 6 7 8 8 8 9 9 9 10 10 10 10 10 10 10 10 11 11 11 11 11 11
5 5 3 2 3 1 2 4 5 6 5 5 5 7 5 5 4 5 5 5 5 5 4 3 2 2 2 2 5 6 7 7 7 7 8 8 9 9 9 8 9 9 10 10 10 10 10 10 11
5 6 2 2 3 2 2 5 3 4 6 4 3 5 6 7 7 6 4 3 3 4 3 3 3 2 1 1 3 4 5 5 5 5 7 6 4 4 4 6 8 9 9 9 9 9 10 9 10
5 4 2 3 4 4 3 4 4 5 5 4 5 5 8 8 7 6 5 4 4 4 3 2 3 2 2 2 2 2 2 2 2 2 2 2 2 2 4 6 7 8 8 8 8 8 8 6 4
4 4 2 2 4 5 4 3 3 7 4 5 9 9 8 8 7 6 4 4 4 4 3 3 3 3 2 2 2 1 1 1 2 2 2 2 2 2 3 2 3 4 5 4 5 4 3 3 3
3 2 4 3 3 4 3 3 4 5 5 8 11 11 9 8 6 5 4 4 4 4 3 3 3 3 3 2 2 2 1 1 1 2 2 2 2 2 2 2 2 2 2 3 3 3 4 5 4
2 2 3 4 5 4 5 4 4 3 5 9 11 10 9 7 5 4 5 5 5 5 3 3 3 4 3 3 1 2 2 2 1 2 2 3 2 2 2 2 2 2 2 3 3 3 5 5 4
3 3 2 3 4 4 6 3 4 3 8 11 10 8 7 7 6 5 5 4 4 4 4 3 4 4 4 3 2 2 2 2 2 2 2 3 3 2 2 3 3 3 2 3 3 4 4 4 4
3 4 1 1 2 2 5 2 2 5 9 11 9 8 7 6 6 6 6 5 5 4 3 3 4 4 5 4 3 2 2 2 2 2 2 3 3 3 3 3 3 2 3 3 3 4 4 4 4
2 2 1 3 3 2 6 2 3 6 10 9 7 7 6 5 5 5 5 5 4 4 3 2 4 4 4 4 3 2 2 2 2 2 2 3 4 4 4 3 2 2 3 3 3 3 4 3 3
1 1 3 3 2 3 5 3 3 6 10 8 7 6 6 4 3 3 4 5 5 5 4 3 3 4 4 4 3 3 2 2 2 2 2 2 3 4 3 3 2 3 3 2 3 3 2 3 2
3 3 2 3 2 4 4 3 3 5 7 8 6 6 5 5 4 4 4 5 5 4 5 4 4 4 4 3 3 3 3 2 2 2 2 3 3 3 3 2 2 3 3 2 2 2 2 2 1
3 2 2 3 3 4 4 3 4 5 6 6 6 6 6 5 4 4 4 5 5 4 4 4 4 3 3 2 2 2 1 1 2 2 3 3 3 3 3 3 2 2 2 2 2 2 2 1 2
2 1 1 0 2 3 3 3 4 5 8 9 10 8 7 5 4 4 4 4 5 5 4 4 4 3 3 2 2 2 2 1 1 1 2 2 2 2 3 3 2 2 2 2 2 2 2 0 1
1 3 3 2 1 2 2 3 2 2 3 5 6 7 7 9 8 6 5 4 5 4 4 4 4 3 3 3 2 3 3 2 2 2 1 1 2 2 2 3 3 2 2 2 2 2 3 1 0
3 3 3 3 3 2 2 2 5 3 3 4 6 6 7 7 7 6 6 5 5 5 4 4 4 3 3 4 4 4 3 1 1 0 0 1 1 1 1 2 3 2 2 2 1 2 2 2 1
4 3 2 3 3 0 1 2 6 1 3 5 6 6 7 7 8 7 7 7 6 5 5 5 4 3 3 4 4 4 2 1 0 0 1 1 1 1 1 1 2 2 1 1 1 1 1 2 2
1 3 4 4 4 1 4 4 5 4 7 7 6 7 8 7 7 6 5 5 4 4 4 4 4 3 3 4 4 5 4 3 2 1 0 0 0 1 1 1 1 1 1 2 2 1 2 1 1
4 6 3 4 3 5 2 3 6 6 6 8 9 9 8 8 7 6 6 5 5 4 4 4 5 4 4 4 4 5 5 4 4 3 2 1 0 0 1 0 0 0 1 1 1 1 1 2 2
2 7 6 4 4 4 2 3 5 3 4 6 7 7 7 7 7 8 8 7 6 6 5 5 5 4 4 4 4 4 4 3 3 3 3 3 2 2 1 1 1 1 1 1 1 1 1 1 2
2 2 5 6 2 1 2 2 3 2 2 4 6 6 6 7 7 7 7 6 6 5 5 5 6 5 4 5 4 4 4 4 3 3 2 2 2 2 2 1 1 1 1 1 1 1 1 1 1
4 4 4 3 2 2 3 3 4 3 3 4 5 6 6 6 5 5 5 5 5 4 4 4 4 5 5 5 4 4 4 4 4 3 3 2 2 2 2 2 1 1 1 1 1 1 0 1 1
1 1 3 3 4 4 3 6 5 7 6 6 6 7 7 7 6 6 5 4 4 3 3 3 3 2 3 4 4 3 3 3 3 3 3 3 2 3 3 3 2 1 1 1 1 1 1 1 0
4 4 5 4 3 4 3 7 4 5 6 6 6 6 6 6 6 5 5 4 4 3 3 3 3 2 3 3 3 3 3 3 3 3 4 4 3 3 3 2 2 2 2 1 2 2 1 2 1
Wind_Direction
292 341 87 65 55 57 68 31 94 67 53 54 72 82 84 68 89 126 201 137 133 131 113 89 87 81 80 80 78 77 76 75 75 74 76 77 75 73 76 86 90 89 88 88 87 87 86 87 87
344 2 63 57 77 79 57 97 101 107 132 118 84 81 78 73 85 115 131 138 135 129 119 105 96 91 87 86 83 82 80 78 76 75 76 77 75 72 74 89 94 92 90 88 86 86 84 84 84
312 50 74 66 83 134 152 181 129 112 108 105 89 64 78 105 110 134 152 142 132 125 121 117 105 98 93 92 91 87 84 80 79 78 78 79 77 75 76 87 91 90 90 88 87 87 85 85 83
59 44 55 67 75 151 161 175 143 109 71 70 97 69 57 80 131 146 142 136 132 134 132 127 115 106 99 93 91 89 85 82 82 82 81 81 79 79 79 82 86 87 87 87 88 87 88 88 86
62 68 60 58 59 70 133 148 122 103 88 77 88 85 55 15 108 124 131 133 137 145 145 135 124 115 107 101 97 96 90 87 85 85 86 85 82 82 83 83 84 84 87 89 88 87 90 92 89
63 67 79 85 77 63 76 122 112 103 109 102 97 102 101 123 119 128 128 134 136 145 146 139 132 123 113 107 102 99 95 92 91 88 86 87 85 86 86 87 86 86 87 89 89 87 88 90 90
102 91 107 124 108 65 117 107 105 112 113 130 126 108 138 194 153 140 132 129 132 136 138 136 135 124 119 112 106 104 99 95 94 92 88 88 87 88 87 88 90 90 92 91 88 86 86 86 88
122 99 84 104 113 111 106 97 114 115 114 129 118 130 168 201 165 135 123 119 127 132 140 147 141 133 120 112 111 108 105 100 96 93 93 90 87 85 86 88 93 94 95 92 89 87 85 84 85
85 79 100 159 153 169 118 95 88 94 102 91 102 144 162 156 135 115 107 100 119 132 147 154 145 147 143 135 112 99 101 101 94 89 96 87 69 70 77 88 95 96 94 93 90 88 86 83 83
85 109 183 182 160 146 125 116 124 93 81 74 74 92 120 132 128 131 136 137 140 147 156 152 143 144 142 125 91 70 83 72 78 82 88 84 79 76 81 83 90 92 86 85 85 83 81 79 75
116 151 160 125 140 127 115 101 94 112 107 145 139 137 131 126 131 142 143 138 140 145 143 143 143 136 128 113 106 67 60 56 62 79 85 84 73 66 58 58 56 56 66 56 60 62 73 83 83
113 147 139 139 121 113 119 111 90 121 165 155 142 138 131 130 135 140 141 135 126 118 124 130 122 116 120 115 107 101 85 70 68 80 92 95 86 79 70 64 49 50 55 57 50 53 86 88 85
126 133 123 131 120 123 103 102 110 111 131 127 125 124 132 137 136 137 128 122 114 111 118 130 124 122 119 106 104 102 91 87 76 65 81 99 97 95 88 81 73 67 66 71 67 66 79 81 80
157 136 125 123 116 116 108 96 98 140 129 125 127 130 134 140 142 126 120 125 122 123 131 131 127 129 117 110 111 108 100 95 83 72 78 93 94 98 94 80 69 67 68 66 74 79 81 78 75
115 100 73 186 147 150 110 66 153 161 130 131 138 140 138 143 139 141 152 152 147 143 136 127 134 117 113 111 111 108 102 97 90 84 74 78 89 99 97 89 80 75 78 76 73 69 70 74 71
69 85 196 256 172 153 118 189 223 163 138 140 148 148 148 151 147 152 152 150 148 135 126 115 116 111 113 111 103 98 93 94 93 89 81 80 86 92 93 95 95 88 82 80 80 72 71 67 68
28 194 222 272 192 143 132 191 209 164 146 152 159 161 157 151 145 155 148 141 140 134 125 107 95 110 111 109 104 97 89 83 84 85 84 83 87 94 101 104 106 95 83 83 99 83 92 88 77
225 209 206 222 228 132 144 196 200 172 156 163 166 168 163 157 172 168 151 141 138 134 125 118 97 99 106 101 86 71 64 59 60 74 91 93 89 95 101 103 103 99 92 84 92 96 78 95 102
199 175 194 213 182 135 167 199 218 183 160 167 171 173 173 178 171 149 146 141 132 122 120 119 105 101 103 100 102 94 79 59 52 63 78 82 91 100 105 103 103 100 109 126 123 106 89 78 99
194 145 157 191 171 140 170 226 225 184 181 181 178 180 179 165 145 144 140 135 133 137 138 129 124 121 121 120 134 130 127 101 84 55 60 72 88 107 112 108 107 113 110 108 112 112 110 135 137
200 180 193 181 108 79 106 319 280 235 181 172 173 175 172 164 166 163 150 142 138 141 150 147 142 133 126 115 96 79 61 47 38 31 28 25 82 91 114 124 126 131 129 140 145 133 128 150 275
225 223 186 162 127 239 159 240 270 223 188 180 179 172 173 168 166 162 155 153 157 161 152 143 143 138 133 125 119 119 113 116 206 219 4 5 51 74 101 129 135 140 136 145 167 140 143 138 147
215 221 185 185 163 205 236 172 271 200 199 206 191 181 175 172 170 166 162 164 164 159 151 148 142 142 142 136 138 135 127 145 127 77 62 29 13 48 77 117 140 153 158 163 148 131 135 141 154
146 47 34 44 82 267 233 172 259 219 207 198 190 184 179 176 174 169 164 153 154 150 147 147 145 155 157 149 150 149 152 149 126 123 129 355 349 351 24 87 143 178 177 177 175 168 159 162 152
77 82 37 7 10 255 250 165 243 237 203 185 182 185 181 176 173 169 166 164 165 162 161 161 160 171 176 166 169 172 171 168 167 176 184 180 204 281 283 154 139 179 204 191 175 167 181 176 167
173 139 153 191 225 274 322 210 252 254 188 172 171 171 167 170 176 177 180 177 174 174 171 170 172 182 187 185 188 184 178 176 183 186 181 187 197 212 216 181 153 155 157 158 155 166 212 178 185
152 184 174 151 202 256 282 284 313 21 109 140 151 155 165 174 178 181 180 178 178 177 180 181 178 182 191 192 192 189 186 181 186 188 184 191 203 204 186 172 148 159 151 161 148 145 219 165 181
163 153 91 115 166 247 279 243 227 217 198 170 162 165 167 168 173 175 176 177 181 184 188 183 180 186 192 194 194 192 196 191 186 172 177 187 203 199 176 177 171 167 168 158 139 152 215 161 199
155 138 121 132 161 162 233 265 226 197 190 178 179 177 171 171 177 176 172 172 166 165 171 172 178 183 188 195 199 191 195 193 180 174 185 186 190 192 187 191 190 195 201 192 141 183 162 166 205
174 184 155 162 218 169 177 264 275 198 185 169 174 180 179 176 177 170 164 162 161 169 174 172 173 180 195 190 184 190 191 187 184 184 187 180 185 197 197 185 193 212 213 195 180 197 187 179 186